Time,TemperatureF,DewpointF,PressureIn,WindDirection,WindDirectionDegrees,WindSpeedMPH,WindSpeedGustMPH,Humidity,HourlyPrecipIn,Conditions,Clouds,dailyrainin,SoftwareType,DateUTC
2013-03-20 00:03:00,40.0,-99.9,29.79,NW,311,10.0,16.0,-999,-99.99,,,-99.99,,2013-03-20 04:03:00,
2013-03-20 00:12:00,40.0,-99.9,29.80,WNW,300,15.0,22.0,-999,-99.99,,,-99.99,,2013-03-20 04:12:00,
2013-03-20 00:23:00,40.0,-99.9,29.80,NW,312,15.0,21.0,-999,-99.99,,,-99.99,,2013-03-20 04:23:00,
2013-03-20 00:32:00,40.0,-99.9,29.80,WNW,285,12.0,18.0,-999,-99.99,,,-99.99,,2013-03-20 04:32:00,
2013-03-20 00:44:00,39.0,-99.9,29.80,WNW,289,14.0,19.0,-999,-99.99,,,-99.99,,2013-03-20 04:44:00,
2013-03-20 00:53:00,39.0,-99.9,29.81,West,279,13.0,21.0,-999,-99.99,,,-99.99,,2013-03-20 04:53:00,
2013-03-20 01:03:00,39.0,-99.9,29.81,WNW,288,13.0,19.0,-999,-99.99,,,-99.99,,2013-03-20 05:03:00,
2013-03-20 01:13:00,38.0,-99.9,29.81,WNW,288,14.0,22.0,-999,-99.99,,,-99.99,,2013-03-20 05:13:00,
2013-03-20 01:23:00,38.0,-99.9,29.82,West,275,11.0,15.0,-999,-99.99,,,-99.99,,2013-03-20 05:23:00,
2013-03-20 01:33:00,38.0,-99.9,29.82,WNW,289,12.0,18.0,-999,-99.99,,,-99.99,,2013-03-20 05:33:00,
2013-03-20 01:43:00,38.0,-99.9,29.82,West,279,8.0,13.0,-999,-99.99,,,-99.99,,2013-03-20 05:43:00,
2013-03-20 01:53:00,37.0,-99.9,29.82,WNW,297,13.0,17.0,-999,-99.99,,,-99.99,,2013-03-20 05:53:00,
2013-03-20 02:03:00,37.0,-99.9,29.82,WNW,291,13.0,18.0,-999,-99.99,,,-99.99,,2013-03-20 06:03:00,
2013-03-20 02:13:00,37.0,-99.9,29.83,WNW,300,11.0,16.0,-999,-99.99,,,-99.99,,2013-03-20 06:13:00,
2013-03-20 02:22:00,37.0,-99.9,29.83,WNW,285,9.0,15.0,-999,-99.99,,,-99.99,,2013-03-20 06:22:00,
2013-03-20 02:32:00,36.0,-99.9,29.84,West,279,11.0,18.0,-999,-99.99,,,-99.99,,2013-03-20 06:32:00,
2013-03-20 02:43:00,36.0,-99.9,29.84,West,277,12.0,22.0,-999,-99.99,,,-99.99,,2013-03-20 06:43:00,
2013-03-20 02:53:00,36.0,-99.9,29.84,WNW,285,9.0,15.0,-999,-99.99,,,-99.99,,2013-03-20 06:53:00,
2013-03-20 03:02:00,36.0,-99.9,29.85,WNW,288,12.0,18.0,-999,-99.99,,,-99.99,,2013-03-20 07:02:00,
2013-03-20 03:12:00,35.0,-99.9,29.85,West,275,15.0,21.0,-999,-99.99,,,-99.99,,2013-03-20 07:12:00,
2013-03-20 03:22:00,35.0,-99.9,29.85,WNW,286,10.0,16.0,-999,-99.99,,,-99.99,,2013-03-20 07:22:00,
2013-03-20 03:32:00,35.0,-99.9,29.85,West,280,14.0,21.0,-999,-99.99,,,-99.99,,2013-03-20 07:32:00,
2013-03-20 03:42:00,35.0,-99.9,29.86,West,280,15.0,20.0,-999,-99.99,,,-99.99,,2013-03-20 07:42:00,
2013-03-20 03:52:00,35.0,-99.9,29.86,West,279,14.0,22.0,-999,-99.99,,,-99.99,,2013-03-20 07:52:00,
2013-03-20 04:03:00,35.0,-99.9,29.86,West,277,11.0,21.0,-999,-99.99,,,-99.99,,2013-03-20 08:03:00,
2013-03-20 04:13:00,34.0,-99.9,29.86,WNW,287,11.0,18.0,-999,-99.99,,,-99.99,,2013-03-20 08:13:00,
2013-03-20 04:22:00,34.0,-99.9,29.86,West,266,13.0,26.0,-999,-99.99,,,-99.99,,2013-03-20 08:22:00,
2013-03-20 04:32:00,34.0,-99.9,29.87,West,279,14.0,21.0,-999,-99.99,,,-99.99,,2013-03-20 08:32:00,
2013-03-20 04:43:00,34.0,-99.9,29.86,West,278,11.0,17.0,-999,-99.99,,,-99.99,,2013-03-20 08:43:00,
2013-03-20 04:52:00,34.0,-99.9,29.86,West,272,12.0,19.0,-999,-99.99,,,-99.99,,2013-03-20 08:52:00,
2013-03-20 05:02:00,34.0,-99.9,29.87,West,265,6.0,10.0,-999,-99.99,,,-99.99,,2013-03-20 09:02:00,
2013-03-20 05:12:00,33.0,-99.9,29.87,WSW,258,8.0,13.0,-999,-99.99,,,-99.99,,2013-03-20 09:12:00,
2013-03-20 05:22:00,33.0,-99.9,29.87,WSW,252,9.0,15.0,-999,-99.99,,,-99.99,,2013-03-20 09:22:00,
2013-03-20 05:33:00,33.0,-99.9,29.86,West,259,6.0,10.0,-999,-99.99,,,-99.99,,2013-03-20 09:33:00,
2013-03-20 05:43:00,33.0,-99.9,29.86,WSW,258,7.0,13.0,-999,-99.99,,,-99.99,,2013-03-20 09:43:00,
2013-03-20 05:53:00,33.0,-99.9,29.87,WSW,253,9.0,17.0,-999,-99.99,,,-99.99,,2013-03-20 09:53:00,
2013-03-20 06:03:00,33.0,-99.9,29.87,WSW,258,9.0,14.0,-999,-99.99,,,-99.99,,2013-03-20 10:03:00,
2013-03-20 06:13:00,33.0,-99.9,29.87,WSW,258,9.0,17.0,-999,-99.99,,,-99.99,,2013-03-20 10:13:00,
2013-03-20 06:23:00,33.0,-99.9,29.87,WSW,257,10.0,16.0,-999,-99.99,,,-99.99,,2013-03-20 10:23:00,
2013-03-20 06:33:00,33.0,-99.9,29.87,WSW,252,8.0,13.0,-999,-99.99,,,-99.99,,2013-03-20 10:33:00,
2013-03-20 06:43:00,33.0,-99.9,29.87,WSW,254,7.0,12.0,-999,-99.99,,,-99.99,,2013-03-20 10:43:00,
2013-03-20 06:53:00,33.0,-99.9,29.88,WSW,246,9.0,16.0,-999,-99.99,,,-99.99,,2013-03-20 10:53:00,
2013-03-20 07:03:00,33.0,-99.9,29.88,West,260,8.0,13.0,-999,-99.99,,,-99.99,,2013-03-20 11:03:00,
2013-03-20 07:12:00,33.0,-99.9,29.88,WSW,257,8.0,15.0,-999,-99.99,,,-99.99,,2013-03-20 11:12:00,
2013-03-20 07:23:00,33.0,-99.9,29.88,West,260,9.0,18.0,-999,-99.99,,,-99.99,,2013-03-20 11:23:00,
2013-03-20 07:32:00,33.0,-99.9,29.88,WSW,255,6.0,10.0,-999,-99.99,,,-99.99,,2013-03-20 11:32:00,
2013-03-20 07:43:00,33.0,-99.9,29.88,West,260,10.0,15.0,-999,-99.99,,,-99.99,,2013-03-20 11:43:00,
2013-03-20 07:52:00,33.0,-99.9,29.88,WSW,255,12.0,19.0,-999,-99.99,,,-99.99,,2013-03-20 11:52:00,
2013-03-20 08:02:00,33.0,-99.9,29.88,West,262,9.0,14.0,-999,-99.99,,,-99.99,,2013-03-20 12:02:00,
2013-03-20 08:13:00,34.0,-99.9,29.88,West,269,10.0,16.0,-999,-99.99,,,-99.99,,2013-03-20 12:13:00,
2013-03-20 08:22:00,34.0,-99.9,29.88,West,263,11.0,20.0,-999,-99.99,,,-99.99,,2013-03-20 12:22:00,
2013-03-20 08:33:00,34.0,-99.9,29.88,WSW,258,11.0,19.0,-999,-99.99,,,-99.99,,2013-03-20 12:33:00,
2013-03-20 08:43:00,34.0,-99.9,29.88,West,265,11.0,17.0,-999,-99.99,,,-99.99,,2013-03-20 12:43:00,
2013-03-20 08:53:00,35.0,-99.9,29.88,West,268,14.0,19.0,-999,-99.99,,,-99.99,,2013-03-20 12:53:00,
2013-03-20 09:03:00,35.0,-99.9,29.88,West,281,15.0,21.0,-999,-99.99,,,-99.99,,2013-03-20 13:03:00,
2013-03-20 09:13:00,35.0,-99.9,29.88,West,281,15.0,24.0,-999,-99.99,,,-99.99,,2013-03-20 13:13:00,
2013-03-20 09:22:00,35.0,-99.9,29.87,West,276,19.0,26.0,-999,-99.99,,,-99.99,,2013-03-20 13:22:00,
2013-03-20 09:32:00,36.0,-99.9,29.87,WNW,285,15.0,26.0,-999,-99.99,,,-99.99,,2013-03-20 13:32:00,
2013-03-20 09:43:00,36.0,-99.9,29.87,WNW,300,13.0,18.0,-999,-99.99,,,-99.99,,2013-03-20 13:43:00,
2013-03-20 09:53:00,36.0,-99.9,29.87,WNW,286,12.0,18.0,-999,-99.99,,,-99.99,,2013-03-20 13:53:00,
2013-03-20 10:03:00,37.0,-99.9,29.87,WNW,284,15.0,25.0,-999,-99.99,,,-99.99,,2013-03-20 14:03:00,
2013-03-20 10:12:00,36.0,-99.9,29.87,West,278,21.0,29.0,-999,-99.99,,,-99.99,,2013-03-20 14:12:00,
2013-03-20 10:23:00,37.0,-99.9,29.87,WNW,287,15.0,22.0,-999,-99.99,,,-99.99,,2013-03-20 14:23:00,
2013-03-20 10:34:00,37.0,-99.9,29.87,West,280,17.0,24.0,-999,-99.99,,,-99.99,,2013-03-20 14:34:00,
2013-03-20 10:43:00,37.0,-99.9,29.87,WNW,290,16.0,22.0,-999,-99.99,,,-99.99,,2013-03-20 14:43:00,
2013-03-20 10:53:00,37.0,-99.9,29.87,WNW,287,11.0,23.0,-999,-99.99,,,-99.99,,2013-03-20 14:53:00,
2013-03-20 11:03:00,37.0,-99.9,29.87,West,273,13.0,20.0,-999,-99.99,,,-99.99,,2013-03-20 15:03:00,
2013-03-20 11:13:00,37.0,-99.9,29.87,WNW,290,15.0,25.0,-999,-99.99,,,-99.99,,2013-03-20 15:13:00,
2013-03-20 11:22:00,38.0,-99.9,29.87,WNW,293,13.0,21.0,-999,-99.99,,,-99.99,,2013-03-20 15:22:00,
2013-03-20 11:34:00,38.0,-99.9,29.87,West,271,14.0,22.0,-999,-99.99,,,-99.99,,2013-03-20 15:34:00,
2013-03-20 11:44:00,38.0,-99.9,29.87,WNW,282,14.0,21.0,-999,-99.99,,,-99.99,,2013-03-20 15:44:00,
2013-03-20 11:53:00,38.0,-99.9,29.87,West,274,10.0,15.0,-999,-99.99,,,-99.99,,2013-03-20 15:53:00,
2013-03-20 12:03:00,39.0,-99.9,29.87,West,272,10.0,16.0,-999,-99.99,,,-99.99,,2013-03-20 16:03:00,
2013-03-20 12:13:00,39.0,-99.9,29.86,WNW,298,17.0,24.0,-999,-99.99,,,-99.99,,2013-03-20 16:13:00,
2013-03-20 12:23:00,39.0,-99.9,29.86,West,278,9.0,16.0,-999,-99.99,,,-99.99,,2013-03-20 16:23:00,
2013-03-20 12:33:00,39.0,-99.9,29.85,WNW,289,17.0,25.0,-999,-99.99,,,-99.99,,2013-03-20 16:33:00,
2013-03-20 12:43:00,40.0,-99.9,29.85,WNW,285,12.0,17.0,-999,-99.99,,,-99.99,,2013-03-20 16:43:00,
2013-03-20 12:53:00,40.0,-99.9,29.85,West,270,6.0,9.0,-999,-99.99,,,-99.99,,2013-03-20 16:53:00,
2013-03-20 13:03:00,40.0,-99.9,29.85,WNW,292,14.0,21.0,-999,-99.99,,,-99.99,,2013-03-20 17:03:00,
2013-03-20 13:12:00,40.0,-99.9,29.84,West,280,14.0,24.0,-999,-99.99,,,-99.99,,2013-03-20 17:12:00,
2013-03-20 13:22:00,41.0,-99.9,29.84,WNW,289,16.0,21.0,-999,-99.99,,,-99.99,,2013-03-20 17:22:00,
2013-03-20 13:33:00,41.0,-99.9,29.84,WNW,298,12.0,17.0,-999,-99.99,,,-99.99,,2013-03-20 17:33:00,
2013-03-20 13:42:00,42.0,-99.9,29.84,WNW,291,11.0,18.0,-999,-99.99,,,-99.99,,2013-03-20 17:42:00,
2013-03-20 13:53:00,42.0,-99.9,29.83,NW,309,11.0,19.0,-999,-99.99,,,-99.99,,2013-03-20 17:53:00,
2013-03-20 14:02:00,42.0,-99.9,29.83,NW,309,11.0,19.0,-999,-99.99,,,-99.99,,2013-03-20 18:02:00,
2013-03-20 14:12:00,42.0,-99.9,29.82,WNW,299,14.0,19.0,-999,-99.99,,,-99.99,,2013-03-20 18:12:00,
2013-03-20 14:22:00,42.0,-99.9,29.82,WNW,292,14.0,20.0,-999,-99.99,,,-99.99,,2013-03-20 18:22:00,
2013-03-20 14:34:00,43.0,-99.9,29.81,West,260,9.0,15.0,-999,-99.99,,,-99.99,,2013-03-20 18:34:00,
2013-03-20 14:43:00,44.0,-99.9,29.80,West,269,7.0,14.0,-999,-99.99,,,-99.99,,2013-03-20 18:43:00,
2013-03-20 14:53:00,44.0,-99.9,29.80,West,280,11.0,16.0,-999,-99.99,,,-99.99,,2013-03-20 18:53:00,
2013-03-20 15:02:00,44.0,-99.9,29.79,West,276,18.0,30.0,-999,-99.99,,,-99.99,,2013-03-20 19:02:00,
2013-03-20 15:12:00,44.0,-99.9,29.79,WSW,254,10.0,19.0,-999,-99.99,,,-99.99,,2013-03-20 19:12:00,
2013-03-20 15:23:00,46.0,-99.9,29.79,West,261,10.0,21.0,-999,-99.99,,,-99.99,,2013-03-20 19:23:00,
2013-03-20 15:33:00,45.0,-99.9,29.79,WSW,253,10.0,17.0,-999,-99.99,,,-99.99,,2013-03-20 19:33:00,
2013-03-20 15:42:00,44.0,-99.9,29.78,West,272,14.0,21.0,-999,-99.99,,,-99.99,,2013-03-20 19:42:00,
2013-03-20 15:53:00,46.0,-99.9,29.79,WSW,253,10.0,15.0,-999,-99.99,,,-99.99,,2013-03-20 19:53:00,
2013-03-20 16:02:00,44.0,-99.9,29.79,WNW,298,16.0,22.0,-999,-99.99,,,-99.99,,2013-03-20 20:02:00,
2013-03-20 16:13:00,44.0,-99.9,29.78,WNW,290,13.0,19.0,-999,-99.99,,,-99.99,,2013-03-20 20:13:00,
2013-03-20 16:23:00,45.0,-99.9,29.78,West,281,12.0,18.0,-999,-99.99,,,-99.99,,2013-03-20 20:23:00,
2013-03-20 16:32:00,45.0,-99.9,29.78,West,272,15.0,32.0,-999,-99.99,,,-99.99,,2013-03-20 20:32:00,
2013-03-20 16:43:00,44.0,-99.9,29.78,WNW,289,17.0,26.0,-999,-99.99,,,-99.99,,2013-03-20 20:43:00,
2013-03-20 16:53:00,44.0,-99.9,29.78,WNW,284,13.0,21.0,-999,-99.99,,,-99.99,,2013-03-20 20:53:00,
2013-03-20 17:02:00,46.0,-99.9,29.78,West,262,12.0,21.0,-999,-99.99,,,-99.99,,2013-03-20 21:02:00,
2013-03-20 17:12:00,45.0,-99.9,29.78,West,265,15.0,23.0,-999,-99.99,,,-99.99,,2013-03-20 21:12:00,
2013-03-20 17:23:00,45.0,-99.9,29.77,West,265,10.0,17.0,-999,-99.99,,,-99.99,,2013-03-20 21:23:00,
2013-03-20 17:33:00,44.0,-99.9,29.78,WNW,282,14.0,19.0,-999,-99.99,,,-99.99,,2013-03-20 21:33:00,
2013-03-20 17:42:00,44.0,-99.9,29.77,NW,308,14.0,20.0,-999,-99.99,,,-99.99,,2013-03-20 21:42:00,
2013-03-20 17:53:00,44.0,-99.9,29.77,NW,313,12.0,16.0,-999,-99.99,,,-99.99,,2013-03-20 21:53:00,
2013-03-20 18:03:00,44.0,-99.9,29.77,NW,311,15.0,21.0,-999,-99.99,,,-99.99,,2013-03-20 22:03:00,
2013-03-20 18:13:00,45.0,-99.9,29.77,WNW,289,8.0,12.0,-999,-99.99,,,-99.99,,2013-03-20 22:13:00,
2013-03-20 18:23:00,44.0,-99.9,29.77,WNW,282,8.0,13.0,-999,-99.99,,,-99.99,,2013-03-20 22:23:00,
2013-03-20 18:33:00,44.0,-99.9,29.77,WNW,291,8.0,13.0,-999,-99.99,,,-99.99,,2013-03-20 22:33:00,
2013-03-20 18:43:00,45.0,-99.9,29.77,West,268,9.0,13.0,-999,-99.99,,,-99.99,,2013-03-20 22:43:00,
2013-03-20 18:53:00,44.0,-99.9,29.78,WSW,243,9.0,15.0,-999,-99.99,,,-99.99,,2013-03-20 22:53:00,
2013-03-20 19:03:00,45.0,-99.9,29.78,West,278,10.0,17.0,-999,-99.99,,,-99.99,,2013-03-20 23:03:00,
2013-03-20 19:12:00,45.0,-99.9,29.78,West,263,9.0,17.0,-999,-99.99,,,-99.99,,2013-03-20 23:12:00,
2013-03-20 19:23:00,44.0,-99.9,29.78,WSW,256,6.0,10.0,-999,-99.99,,,-99.99,,2013-03-20 23:23:00,
2013-03-20 19:33:00,44.0,-99.9,29.78,WSW,255,7.0,13.0,-999,-99.99,,,-99.99,,2013-03-20 23:33:00,
2013-03-20 19:43:00,44.0,-99.9,29.78,West,274,6.0,9.0,-999,-99.99,,,-99.99,,2013-03-20 23:43:00,
2013-03-20 19:53:00,44.0,-99.9,29.78,WNW,296,9.0,11.0,-999,-99.99,,,-99.99,,2013-03-20 23:53:00,
2013-03-20 20:03:00,44.0,-99.9,29.78,WNW,303,8.0,11.0,-999,-99.99,,,-99.99,,2013-03-21 00:03:00,
2013-03-20 20:13:00,43.0,-99.9,29.78,WNW,285,8.0,12.0,-999,-99.99,,,-99.99,,2013-03-21 00:13:00,
2013-03-20 20:23:00,43.0,-99.9,29.78,WNW,293,7.0,9.0,-999,-99.99,,,-99.99,,2013-03-21 00:23:00,
2013-03-20 20:33:00,43.0,-99.9,29.78,WNW,299,7.0,12.0,-999,-99.99,,,-99.99,,2013-03-21 00:33:00,
2013-03-20 20:42:00,43.0,-99.9,29.78,WNW,295,8.0,11.0,-999,-99.99,,,-99.99,,2013-03-21 00:42:00,
2013-03-20 20:53:00,43.0,-99.9,29.78,WNW,300,5.0,6.0,-999,-99.99,,,-99.99,,2013-03-21 00:53:00,
2013-03-20 21:02:00,42.0,-99.9,29.78,NW,307,7.0,9.0,-999,-99.99,,,-99.99,,2013-03-21 01:02:00,
2013-03-20 21:12:00,42.0,-99.9,29.79,NW,316,5.0,7.0,-999,-99.99,,,-99.99,,2013-03-21 01:12:00,
2013-03-20 21:22:00,42.0,-99.9,29.79,NW,316,4.0,5.0,-999,-99.99,,,-99.99,,2013-03-21 01:22:00,
2013-03-20 21:33:00,42.0,-99.9,29.79,NW,319,2.0,3.0,-999,-99.99,,,-99.99,,2013-03-21 01:33:00,
2013-03-20 21:43:00,42.0,-99.9,29.80,NNW,328,5.0,6.0,-999,-99.99,,,-99.99,,2013-03-21 01:43:00,
2013-03-20 21:53:00,42.0,-99.9,29.80,NNW,338,7.0,7.0,-999,-99.99,,,-99.99,,2013-03-21 01:53:00,
2013-03-20 22:03:00,42.0,-99.9,29.80,NNW,343,7.0,7.0,-999,-99.99,,,-99.99,,2013-03-21 02:03:00,
2013-03-20 22:13:00,42.0,-99.9,29.79,NNW,336,4.0,5.0,-999,-99.99,,,-99.99,,2013-03-21 02:13:00,
2013-03-20 22:23:00,41.0,-99.9,29.80,NNW,335,3.0,3.0,-999,-99.99,,,-99.99,,2013-03-21 02:23:00,
2013-03-20 22:33:00,41.0,-99.9,29.80,North,350,3.0,4.0,-999,-99.99,,,-99.99,,2013-03-21 02:33:00,
2013-03-20 22:42:00,41.0,-99.9,29.80,North,350,3.0,4.0,-999,-99.99,,,-99.99,,2013-03-21 02:42:00,
2013-03-20 22:52:00,41.0,-99.9,29.80,North,350,3.0,4.0,-999,-99.99,,,-99.99,,2013-03-21 02:52:00,
2013-03-20 23:03:00,41.0,-99.9,29.81,NW,323,2.0,3.0,-999,-99.99,,,-99.99,,2013-03-21 03:03:00,
2013-03-20 23:12:00,41.0,-99.9,29.81,West,277,1.0,2.0,-999,-99.99,,,-99.99,,2013-03-21 03:12:00,
2013-03-20 23:22:00,41.0,-99.9,29.81,SW,229,1.0,2.0,-999,-99.99,,,-99.99,,2013-03-21 03:22:00,
2013-03-20 23:33:00,41.0,-99.9,29.81,North,-999,-999.0,-999.0,-999,-99.99,,,-99.99,,2013-03-21 03:33:00,
2013-03-20 23:43:00,41.0,-99.9,29.81,NNW,338,5.0,7.0,-999,-99.99,,,-99.99,,2013-03-21 03:43:00,
2013-03-20 23:53:00,41.0,-99.9,29.80,NW,321,10.0,13.0,-999,-99.99,,,-99.99,,2013-03-21 03:53:00,